15min,AgWx,beryljct,423,04NOV2018:00:00:00,33.9,12.89,29.3,30.2,28.9,30.2,27.9,69,73,65,0.383,20.1,20.9,19.5,6.818,4.4,315,3.1,6.8,-0.00000,0.00001,47.0,49.6,22,0,0,35.7,8.37,0.00,0.00
15min,AgWx,beryljct,423,04NOV2018:00:15:00,33.4,12.89,33.1,34.3,32.2,34.3,30.3,64,68,59,0.397,21.5,22.3,20.7,6.577,6.1,301,9.1,7.5,0.00007,0.00009,46.8,49.6,22,0,0,35.8,8.37,0.00,0.00
15min,AgWx,beryljct,423,04NOV2018:00:30:00,33.4,12.88,33.9,33.1,33.6,34.6,32.6,62,65,58,0.401,21.8,22.2,21.4,4.823,5.0,313,7.7,7.1,0.00005,0.00008,46.7,49.5,22,0,0,35.4,8.36,0.00,0.00
15min,AgWx,beryljct,423,04NOV2018:00:45:00,33.4,12.88,33.7,33.6,33.2,33.8,32.3,62,65,60,0.393,21.6,21.9,21.3,6.05,4.9,311,6.4,6.8,0.00005,0.00007,46.5,49.4,22,0,0,35.5,8.36,0.00,0.00
15min,AgWx,beryljct,423,04NOV2018:01:00:00,33.4,12.87,34.7,33.8,34.2,36.1,33.1,59,63,54,0.395,21.5,21.8,20.9,4.056,4.2,300,6.6,6.1,0.00003,0.00006,46.3,49.4,22,0,0,35.8,8.37,0.00,0.00
15min,AgWx,beryljct,423,04NOV2018:01:15:00,33.5,12.74,34.9,35.7,34.3,35.9,33.4,59,62,54,0.389,21.4,21.8,21.0,4.253,4.4,295,8.3,5.6,0.00004,0.00007,46.1,49.3,22,0,0,36.1,8.36,0.00,0.00
15min,AgWx,beryljct,423,04NOV2018:01:30:00,33.7,12.86,37.0,37.0,36.3,37.4,35.0,53,57,50,0.381,20.9,21.3,20.5,4.384,4.2,316,21,5.7,0.00006,0.00010,46.0,49.2,22,0,0,35.6,8.37,0.00,0.00
15min,AgWx,beryljct,423,04NOV2018:01:45:00,34.1,12.85,35.2,33.1,35.2,37.5,32.4,55,63,50,0.383,20.6,21.5,20.2,2.894,3.8,331,16,6.2,0.00004,0.00007,45.8,49.1,22,0,0,35.5,8.37,0.00,0.00
15min,AgWx,beryljct,423,04NOV2018:02:00:00,33.7,12.83,32.6,31.9,32.3,33.0,31.8,62,64,60,0.383,20.9,21.1,20.5,2.543,3.9,320,9.3,5.6,0.00001,0.00003,45.6,49.1,22,0,0,35.5,8.37,0.00,0.00
15min,AgWx,beryljct,423,04NOV2018:02:15:00,33.3,12.83,32.6,30.2,32.3,34.3,30.0,61,67,56,0.378,20.4,21.2,19.9,3.946,4.0,331,14,5.7,0.00002,0.00004,45.5,49.0,22,0,0,35.7,8.37,0.00,0.00
15min,AgWx,beryljct,423,04NOV2018:02:30:00,32.6,12.82,30.8,29.6,30.4,32.2,29.1,65,69,61,0.369,20.1,21.1,19.6,2.258,4.3,318,9.8,5.2,0.00001,0.00003,45.3,48.9,22,0,0,35.5,8.37,0.00,0.00
15min,AgWx,beryljct,423,04NOV2018:02:45:00,31.9,12.81,32.2,32.9,31.2,33.4,28.9,64,70,58,0.379,20.4,21.0,19.7,4.406,3.4,311,13,4.8,-0.00001,-0.00000,45.2,48.8,22,0,0,35.8,8.37,0.00,0.00
15min,AgWx,beryljct,423,04NOV2018:03:00:00,31.9,12.81,34.8,34.3,34.1,36.1,32.1,57,62,52,0.377,20.4,21.1,19.8,1.6,3.4,312,13,4.9,0.00001,0.00004,45.1,48.8,22,0,0,35.7,8.37,0.00,0.00
15min,AgWx,beryljct,423,04NOV2018:03:15:00,32.3,12.8,36.5,36.1,35.9,37.0,34.2,53,57,50,0.368,20.2,20.7,19.8,1.798,1.6,358,32,3.5,-0.00010,-0.00012,44.9,48.7,22,0,0,35.9,8.37,0.00,0.00
15min,AgWx,beryljct,423,04NOV2018:03:30:00,32.1,12.63,30.7,26.8,31.4,36.0,26.8,62,74,51,0.366,19.8,20.7,19.0,3.508,2.2,23,39,5.3,-0.00006,-0.00007,44.8,48.6,22,0,0,35.3,8.37,0.00,0.00
15min,AgWx,beryljct,423,04NOV2018:03:45:00,31.1,12.75,26.7,26.1,26.3,26.8,25.9,77,80,74,0.378,20.1,20.9,19.7,3.201,1.8,156,17,4.6,-0.00010,-0.00013,44.6,48.5,22,0,0,35.5,8.37,0.00,0.00
15min,AgWx,beryljct,423,04NOV2018:04:00:00,29.9,12.76,26.9,28.1,26.1,28.1,25.3,78,81,73,0.382,20.3,20.7,19.7,1.995,1.4,172,3.6,2.9,-0.00013,-0.00016,44.5,48.4,22,0,0,35.6,8.37,0.00,0.00
15min,AgWx,beryljct,423,04NOV2018:04:15:00,29.1,12.76,27.6,27.4,27.2,28.4,26.5,74,76,70,0.374,20.0,20.5,18.9,1.732,1.5,158,2.3,2.3,-0.00012,-0.00015,44.3,48.4,22,0,0,35.4,8.37,0.00,0.00
15min,AgWx,beryljct,423,04NOV2018:04:30:00,28.6,12.75,26.6,25.4,26.3,27.6,25.3,77,80,73,0.370,20.0,20.8,19.4,2.806,2.0,160,17,4.2,-0.00010,-0.00012,44.2,48.3,22,0,0,35.6,8.37,0.00,0.00
15min,AgWx,beryljct,423,04NOV2018:04:45:00,28.0,12.75,25.9,25.9,25.3,26.1,24.5,78,82,74,0.360,19.5,20.3,18.9,5.459,2.3,167,2.9,5.7,-0.00009,-0.00010,44.0,48.2,22,0,0,35.6,8.37,0.00,0.00
15min,AgWx,beryljct,423,04NOV2018:05:00:00,27.8,12.59,26.3,26.3,25.7,26.3,25.2,77,79,75,0.370,19.5,20.0,19.0,6.84,5.8,158,7.1,7.3,-0.00000,0.00001,43.9,48.1,22,0,0,35.6,8.37,0.00,0.00
15min,AgWx,beryljct,423,04NOV2018:05:15:00,27.9,12.72,27.5,26.9,26.9,27.2,26.4,73,76,71,0.357,19.4,19.9,19.0,2.938,4.9,177,6.6,6.7,-0.00000,0.00001,43.7,48.1,22,0,0,35.9,8.37,0.00,0.00
15min,AgWx,beryljct,423,04NOV2018:05:30:00,27.9,12.72,29.1,30.1,28.2,30.1,26.8,70,73,65,0.370,19.6,19.9,19.1,4.56,3.5,183,3.8,4.6,-0.00003,-0.00002,43.6,48.0,22,0,0,35.6,8.37,0.00,0.00
15min,AgWx,beryljct,423,04NOV2018:05:45:00,28.2,12.73,29.0,25.9,29.0,31.1,25.9,68,78,63,0.370,19.7,20.0,19.0,1.03,2.1,176,6.1,4.4,-0.00008,-0.00009,43.4,47.9,22,0,0,35.6,8.37,0.00,0.00
15min,AgWx,beryljct,423,04NOV2018:06:00:00,28.0,12.72,25.8,25.3,25.5,26.5,24.8,78,80,75,0.369,19.5,20.4,19.1,0.745,1.1,146,12,2.2,-0.00014,-0.00019,43.3,47.8,22,0,0,35.4,8.37,0.00,0.00
15min,AgWx,beryljct,423,04NOV2018:06:15:00,27.6,12.71,27.1,26.5,26.4,27.7,25.2,75,79,71,0.362,19.6,20.4,18.9,5.108,3.4,7.8,53,5.5,-0.00005,-0.00005,43.1,47.7,22,0,0,35.5,8.37,0.00,0.00
15min,AgWx,beryljct,423,04NOV2018:06:30:00,27.6,12.57,26.3,24.9,25.9,26.5,24.9,75,76,74,0.349,19.2,19.7,18.6,1.469,4.3,352,6.6,5.8,0.00014,0.00025,43.0,47.7,22,0,0,35.6,8.37,0.00,0.00
15min,AgWx,beryljct,423,04NOV2018:06:45:00,27.1,12.72,24.2,24.0,23.8,24.8,23.4,81,83,77,0.356,18.9,19.3,17.9,0,0.3,342,0.1,1.5,0.00001,0.00002,42.8,47.6,22,0,0,35.7,8.37,0.00,0.00
15min,AgWx,beryljct,423,04NOV2018:07:00:00,26.5,12.71,26.2,25.9,25.4,26.6,23.9,78,81,75,0.369,19.5,20.2,18.9,1.951,1.1,35,45,2.3,0.00005,0.00008,42.7,47.5,22,3,0,35.6,8.37,0.00,0.00
15min,AgWx,beryljct,423,04NOV2018:07:15:00,26.3,12.79,24.9,24.1,24.6,26.1,23.9,79,82,76,0.361,19.1,20.0,18.4,1.907,1.5,140,35,2.2,0.00009,0.00013,42.6,47.4,22,13,0,35.9,8.37,0.00,0.00
15min,AgWx,beryljct,423,04NOV2018:07:30:00,26.1,12.99,24.8,24.7,24.2,24.7,23.9,81,82,80,0.369,19.3,19.9,18.8,1.228,2.2,178,7.7,3.1,0.00022,0.00027,42.4,47.3,22,50,0,35.5,8.37,0.00,0.00
15min,AgWx,beryljct,423,04NOV2018:07:45:00,27.0,13.38,27.4,28.2,26.5,28.2,24.7,79,82,75,0.394,21.0,21.6,19.9,0.943,1.3,182,0.1,2.2,0.00033,0.00038,42.3,47.2,22,103,0,37.5,8.37,0.00,0.00
15min,AgWx,beryljct,423,04NOV2018:08:00:00,28.9,13.8,29.5,29.6,28.9,29.6,28.2,75,76,73,0.415,21.9,23.0,21.1,2.346,1.1,212,48,2.4,0.00046,0.00052,42.2,47.1,22,139,0,42.1,8.37,0.00,0.00
15min,AgWx,beryljct,423,04NOV2018:08:15:00,31.3,14.76,31.3,31.9,30.7,31.9,29.7,73,75,69,0.419,22.9,24.0,22.0,5.108,3.1,321,11,5.5,0.00068,0.00082,42.1,47.1,22,198,0,43.4,8.37,0.00,0.00
15min,AgWx,beryljct,423,04NOV2018:08:30:00,33.9,14.22,33.9,35.1,33.2,35.1,31.9,68,70,66,0.470,23.8,25.7,22.9,6.204,4.6,337,6.7,6.2,0.00088,0.00109,42.0,47.0,22,230,0,44.3,8.37,0.00,0.00
15min,AgWx,beryljct,423,04NOV2018:08:45:00,35.7,13.86,36.3,36.6,35.7,36.6,35.1,64,68,61,0.451,24.8,25.7,24.1,8.35,7.0,320,7.3,10.0,0.00083,0.00113,41.9,46.9,22,143,0,41.6,8.37,0.00,0.00
15min,AgWx,beryljct,423,04NOV2018:09:00:00,36.7,14.06,37.4,37.5,36.9,37.5,36.6,60,62,59,0.444,24.5,25.1,23.9,7.541,7.8,313,6.4,9.8,0.00099,0.00137,41.8,46.8,22,171,0,42.2,8.37,0.00,0.00
15min,AgWx,beryljct,423,04NOV2018:09:15:00,37.9,13.79,38.2,38.1,37.7,38.2,37.4,58,60,56,0.453,24.3,24.9,23.5,4.209,5.6,320,12,8.2,0.00099,0.00132,41.8,46.7,22,171,0,44.3,8.37,0.00,0.00
15min,AgWx,beryljct,423,04NOV2018:09:30:00,38.7,13.76,38.6,38.5,38.2,38.5,38.0,57,58,56,0.457,24.4,25.0,23.9,3.968,4.6,352,5.9,6.3,0.00100,0.00129,41.9,46.7,22,174,0,44.2,8.36,0.00,0.00
15min,AgWx,beryljct,423,04NOV2018:09:45:00,39.5,13.93,39.2,39.3,38.7,39.3,38.2,57,59,56,0.481,24.9,26.2,24.2,3.113,2.4,352,32,4.1,0.00108,0.00128,41.9,46.6,22,217,0,47.6,8.37,0.00,0.00
15min,AgWx,beryljct,423,04NOV2018:10:00:00,40.3,14.61,39.1,38.6,38.8,39.3,38.5,59,62,57,0.479,25.9,26.8,24.9,3.135,4.5,118,14,6.0,0.00127,0.00157,42.0,46.5,22,258,0,49.5,8.36,0.00,0.00
15min,AgWx,beryljct,423,04NOV2018:10:15:00,41.2,14.58,40.1,41.3,39.5,41.3,38.6,60,64,56,0.492,26.8,27.8,26.2,2.587,2.9,152,23,5.0,0.00134,0.00158,42.0,46.5,22,282,0,52.8,8.36,0.00,0.00
15min,AgWx,beryljct,423,04NOV2018:10:30:00,42.4,14.54,42.3,42.5,41.9,42.7,41.1,53,56,51,0.477,26.0,27.1,25.5,3.968,4.2,183,13,7.2,0.00169,0.00205,42.2,46.4,22,343,0,54.7,8.36,0.00,0.00
15min,AgWx,beryljct,423,04NOV2018:10:45:00,44.1,14.53,43.1,43.2,42.8,43.4,42.4,52,54,50,0.484,26.3,27.4,25.4,4.998,4.8,148,13,7.6,0.00197,0.00239,42.3,46.4,22,407,0,57.3,8.36,0.00,0.00
15min,AgWx,beryljct,423,04NOV2018:11:00:00,45.9,14.55,44.8,45.5,44.3,45.6,43.3,49,52,45,0.482,26.3,28.1,25.3,4.669,4.7,141,9.9,6.8,0.00235,0.00283,42.5,46.3,22,492,0,60.9,8.36,0.00,0.00
15min,AgWx,beryljct,423,04NOV2018:11:15:00,48.3,14.58,46.9,47.1,46.5,47.3,45.4,45,49,42,0.483,26.1,27.4,25.0,5.371,4.4,133,19,6.4,0.00279,0.00332,42.7,46.3,22,581,0,65.7,8.35,0.00,0.00
15min,AgWx,beryljct,423,04NOV2018:11:30:00,50.4,14.43,47.9,48.0,47.7,48.7,47.2,43,46,40,0.488,26.1,28.4,24.8,3.508,4.3,99,18,6.2,0.00289,0.00343,42.9,46.3,22,583,0,65.9,8.35,0.00,0.00
15min,AgWx,beryljct,423,04NOV2018:11:45:00,51.9,14,48.9,49.4,48.6,49.5,48.0,42,44,39,0.467,26.4,27.5,24.8,5.393,4.4,102,16,6.3,0.00287,0.00343,43.2,46.2,22,566,0,65.6,8.35,0.00,0.00
15min,AgWx,beryljct,423,04NOV2018:12:00:00,53.2,13.96,50.6,51.7,50.3,51.7,49.3,38,40,35,0.487,25.5,27.2,23.6,8.09,5.2,127,16,8.8,0.00313,0.00381,43.5,46.2,22,601,0,66.5,8.35,0.00,0.00
15min,AgWx,beryljct,423,04NOV2018:12:15:00,54.4,13.93,52.2,52.8,51.9,52.8,51.4,36,39,32,0.467,25.6,27.5,23.6,6.226,6.0,131,17,8.1,0.00328,0.00407,43.9,46.2,22,606,0,65.7,8.35,0.00,0.00
15min,AgWx,beryljct,423,04NOV2018:12:30:00,55.7,13.92,54.4,54.8,54.1,54.9,53.0,32,35,30,0.440,24.9,26.5,23.3,5.064,5.9,149,12,9.2,0.00341,0.00425,44.4,46.2,22,601,0,67.4,8.34,0.00,0.00
15min,AgWx,beryljct,423,04NOV2018:12:45:00,57.3,13.88,56.1,56.4,55.8,56.6,54.6,29,32,28,0.439,24.3,26.7,23.0,6.533,5.3,180,21,9.3,0.00340,0.00423,44.8,46.3,22,585,0,69.0,8.34,0.00,0.00
15min,AgWx,beryljct,423,04NOV2018:13:00:00,58.8,13.84,57.1,57.0,56.9,57.4,56.3,30,33,28,0.487,25.6,28.4,23.7,6.642,4.7,166,40,8.1,0.00348,0.00427,45.3,46.3,22,596,0,69.5,8.33,0.00,0.00
15min,AgWx,beryljct,423,04NOV2018:13:15:00,60.2,13.81,58.0,58.3,57.8,58.5,57.2,31,33,28,0.501,27.0,29.0,24.5,7.256,5.9,137,20,9.8,0.00349,0.00440,45.8,46.3,22,577,0,68.8,8.33,0.00,0.00
15min,AgWx,beryljct,423,04NOV2018:13:30:00,61.1,13.77,58.9,59.8,58.7,59.8,58.0,31,34,29,0.550,27.9,30.2,26.1,6.423,7.0,124,11,11.1,0.00350,0.00452,46.3,46.4,22,554,0,67.6,8.33,0.00,0.00
15min,AgWx,beryljct,423,04NOV2018:13:45:00,62.0,13.89,60.3,60.9,60.1,60.9,59.6,30,33,29,0.544,28.8,30.8,27.4,9.34,7.7,146,11,10.6,0.00350,0.00462,46.8,46.5,22,532,0,67.5,8.33,0.00,0.00
15min,AgWx,beryljct,423,04NOV2018:14:00:00,63.0,13.77,61.4,62.2,61.2,62.2,60.5,30,32,28,0.556,29.1,31.1,27.7,1.71,3.6,128,27,8.3,0.00305,0.00374,47.3,46.6,22,506,0,70.6,8.33,0.00,0.00
15min,AgWx,beryljct,423,04NOV2018:14:15:00,64.6,13.74,64.1,64.7,63.8,65.1,62.2,30,32,28,0.610,31.9,34.2,29.3,6.16,5.9,232,49,14.6,0.00331,0.00429,47.8,46.7,22,494,0,71.3,8.33,0.00,0.00
15min,AgWx,beryljct,423,04NOV2018:14:30:00,66.1,13.69,65.1,65.8,65.0,65.8,64.6,30,32,29,0.632,32.9,34.3,32.0,5.152,5.5,241,23,9.8,0.00332,0.00427,48.3,46.8,22,493,0,70.8,8.32,0.00,0.00
15min,AgWx,beryljct,423,04NOV2018:14:45:00,67.6,13.69,66.2,65.9,66.2,67.1,65.4,30,31,29,0.650,33.7,35.2,32.3,10.76,9.8,231,27,17.1,0.00380,0.00524,48.8,46.9,22,487,0,72.7,8.32,0.00,0.00
15min,AgWx,beryljct,423,04NOV2018:15:00:00,67.5,13.73,65.2,65.3,65.2,65.9,64.7,31,33,30,0.642,33.9,35.2,33.0,11.36,11.7,254,10,15.1,0.00268,0.00418,49.2,47.1,22,259,0,68.4,8.33,0.00,0.00
15min,AgWx,beryljct,423,04NOV2018:15:15:00,67.3,13.72,65.6,65.6,65.6,65.9,65.1,31,32,30,0.680,34.1,35.1,33.6,13.66,13.0,251,9.7,17.0,0.00322,0.00487,49.6,47.2,22,339,0,68.6,8.33,0.00,0.00
15min,AgWx,beryljct,423,04NOV2018:15:30:00,67.2,13.74,65.4,65.4,65.3,65.7,65.0,31,32,30,0.650,33.9,34.7,33.0,10.43,12.1,248,13,18.3,0.00303,0.00459,50.0,47.4,22,317,0,68.3,8.33,0.00,0.00
15min,AgWx,beryljct,423,04NOV2018:15:45:00,67.4,13.65,65.7,65.9,65.6,65.9,65.4,30,32,29,0.666,33.4,34.7,32.6,3.727,7.1,249,21,11.6,0.00260,0.00369,50.3,47.5,22,334,0,70.0,8.32,0.00,0.00
15min,AgWx,beryljct,423,04NOV2018:16:00:00,67.8,13.67,65.8,65.4,65.8,66.4,65.4,30,32,29,0.653,33.8,34.9,32.8,10.28,9.9,256,13,14.4,0.00279,0.00416,50.6,47.7,22,312,0,70.0,8.33,0.00,0.00
15min,AgWx,beryljct,423,04NOV2018:16:15:00,68.0,13.67,65.7,65.3,65.7,66.0,65.2,31,32,30,0.650,33.9,34.9,33.1,8.51,9.2,248,18,13.2,0.00260,0.00389,50.8,47.9,22,291,0,69.6,8.33,0.00,0.00
15min,AgWx,beryljct,423,04NOV2018:16:30:00,67.3,13.74,64.1,63.3,64.3,65.3,63.3,32,34,30,0.602,33.7,34.6,31.6,12.87,9.7,243,20,15.4,0.00170,0.00293,51.0,48.0,22,132,0,65.7,8.33,0.00,0.00
15min,AgWx,beryljct,423,04NOV2018:16:45:00,65.5,13.8,62.0,61.2,62.2,63.3,61.2,31,33,30,0.601,31.3,32.5,30.4,9.21,12.2,205,11,16.3,0.00100,0.00122,51.2,48.2,22,94,0,62.7,8.33,0.00,0.00
15min,AgWx,beryljct,423,04NOV2018:17:00:00,63.7,13.42,60.9,60.3,60.9,61.4,60.3,32,33,31,0.588,30.7,31.7,30.1,9.49,11.8,206,6.9,14.6,0.00092,0.00112,51.4,48.3,22,77,0,60.9,8.33,0.00,0.00
15min,AgWx,beryljct,423,04NOV2018:17:15:00,61.7,13.28,58.3,57.1,58.5,60.4,57.1,30,33,29,0.479,27.1,31.2,25.7,14.71,14.1,194,6.9,17.6,0.00090,0.00107,51.5,48.4,22,27,0,57.9,8.33,0.00,0.00
15min,AgWx,beryljct,423,04NOV2018:17:30:00,59.6,13.23,56.3,55.7,56.3,57.0,55.7,30,31,29,0.456,25.3,26.1,24.6,13.92,14.5,194,11,19.4,0.00083,0.00099,51.6,48.6,22,11,0,55.7,8.34,0.00,0.00
15min,AgWx,beryljct,423,04NOV2018:17:45:00,57.8,13.18,54.9,54.0,54.9,55.7,54.0,30,32,29,0.449,24.4,25.2,24.0,15.45,12.6,181,11,16.6,0.00073,0.00088,51.6,48.7,22,3,0,54.2,8.34,0.00,0.00
15min,AgWx,beryljct,423,04NOV2018:18:00:00,56.2,13.15,54.0,54.0,53.8,54.3,53.2,32,33,31,0.443,24.5,25.0,24.1,13.24,12.4,187,12,17.2,0.00068,0.00083,51.6,48.8,22,1,0,53.1,8.34,0.00,0.00
15min,AgWx,beryljct,423,04NOV2018:18:15:00,55.2,13.15,53.3,52.3,53.2,54.0,52.3,32,34,31,0.449,24.4,24.8,23.9,11.99,11.0,194,6.2,14.8,0.00062,0.00076,51.6,49.0,22,0,0,52.1,8.34,0.00,0.00
15min,AgWx,beryljct,423,04NOV2018:18:30:00,54.1,13.15,52.3,51.9,52.2,52.6,51.9,34,35,33,0.457,24.5,25.1,24.0,10.06,10.1,200,8.2,12.7,0.00056,0.00069,51.6,49.1,22,0,0,50.9,8.34,0.00,0.00
15min,AgWx,beryljct,423,04NOV2018:18:45:00,53.5,13.14,53.0,52.5,52.7,53.0,52.0,34,35,34,0.472,25.3,25.8,24.8,6.818,9.2,213,8.7,12.1,0.00052,0.00066,51.5,49.2,22,0,0,51.6,8.34,0.00,0.00
15min,AgWx,beryljct,423,04NOV2018:19:00:00,53.0,13.11,52.4,52.2,52.2,52.5,51.7,35,36,34,0.470,25.6,25.9,25.3,11.73,7.7,204,6.7,12.4,0.00044,0.00057,51.4,49.3,22,0,0,50.7,8.34,0.00,0.00
15min,AgWx,beryljct,423,04NOV2018:19:15:00,52.7,13.11,52.7,52.4,52.4,52.7,52.2,35,36,34,0.459,25.2,25.9,24.7,8.13,9.5,211,6.5,12.6,0.00053,0.00067,51.3,49.4,22,0,0,50.9,8.34,0.00,0.00
15min,AgWx,beryljct,423,04NOV2018:19:30:00,52.4,13.09,51.8,49.6,51.9,52.5,49.6,35,38,34,0.464,24.9,25.3,24.5,4.516,6.0,220,52,11.1,0.00034,0.00047,51.2,49.5,22,0,0,50.0,8.34,0.00,0.00
15min,AgWx,beryljct,423,04NOV2018:19:45:00,51.2,13.09,48.8,48.7,48.6,49.5,47.4,40,43,38,0.460,25.3,25.9,24.6,7.234,6.2,83,16,8.1,0.00029,0.00039,51.1,49.5,22,0,0,47.0,8.34,0.00,0.00
15min,AgWx,beryljct,423,04NOV2018:20:00:00,50.0,13.08,49.5,50.0,49.1,50.5,47.2,39,44,35,0.447,24.9,26.4,23.8,3.223,5.5,136,16,7.5,0.00027,0.00037,50.9,49.6,22,0,0,46.9,8.35,0.00,0.00
15min,AgWx,beryljct,423,04NOV2018:20:15:00,49.1,13.07,47.0,44.4,47.4,50.1,44.2,42,50,36,0.479,25.5,27.0,24.0,1.118,2.9,145,10,7.1,0.00005,0.00010,50.8,49.6,22,0,0,45.4,8.35,0.00,0.00
15min,AgWx,beryljct,423,04NOV2018:20:30:00,47.7,13.07,45.3,43.8,45.1,46.1,43.8,46,49,43,0.471,25.4,26.2,24.7,2.258,2.4,174,33,4.4,-0.00002,0.00000,50.7,49.7,22,0,0,42.3,8.35,0.00,0.00
15min,AgWx,beryljct,423,04NOV2018:20:45:00,46.2,13.06,43.6,42.9,43.4,44.6,42.4,48,50,46,0.449,25.0,25.6,24.5,4.362,1.9,184,17,4.4,-0.00008,-0.00008,50.5,49.7,22,0,0,40.5,8.35,0.00,0.00
15min,AgWx,beryljct,423,04NOV2018:21:00:00,45.1,13.05,43.0,43.3,42.6,44.0,42.0,49,51,45,0.456,24.9,25.4,23.9,5.765,6.0,210,2.8,6.8,0.00018,0.00025,50.4,49.7,22,0,0,41.3,8.35,0.00,0.00
15min,AgWx,beryljct,423,04NOV2018:21:15:00,44.3,13.05,43.8,43.0,43.5,46.2,42.0,48,51,42,0.456,24.9,25.5,24.0,0,2.1,210,2.2,5.7,-0.00005,-0.00004,50.2,49.8,22,0,0,41.9,8.35,0.00,0.00
15min,AgWx,beryljct,423,04NOV2018:21:30:00,43.3,13.03,41.7,41.6,41.5,43.0,39.8,53,57,49,0.467,25.5,26.1,24.9,3.244,0.9,276,17,3.2,-0.00019,-0.00026,50.0,49.8,22,0,0,39.1,8.35,0.00,0.00
15min,AgWx,beryljct,423,04NOV2018:21:45:00,42.7,13.03,42.3,42.9,41.8,42.9,39.9,53,58,51,0.476,25.9,26.6,24.8,6.335,5.4,258,7.6,7.2,0.00013,0.00019,49.8,49.8,22,0,0,40.7,8.35,0.00,0.00
15min,AgWx,beryljct,423,04NOV2018:22:00:00,42.9,13.02,43.6,43.2,43.2,43.7,42.5,51,52,49,0.475,26.1,26.2,25.9,6.686,7.0,248,3.4,7.8,0.00021,0.00028,49.6,49.8,22,0,0,42.4,8.35,0.00,0.00
15min,AgWx,beryljct,423,04NOV2018:22:15:00,43.0,13,44.0,45.3,43.4,45.8,42.0,50,54,43,0.461,25.9,26.5,24.8,3.486,4.7,266,15,7.0,0.00013,0.00019,49.5,49.8,22,0,0,42.4,8.35,0.00,0.00
15min,AgWx,beryljct,423,04NOV2018:22:30:00,43.0,13,44.1,40.4,44.3,48.0,40.4,48,56,39,0.474,25.5,26.3,24.4,6.818,1.8,271,57,6.8,-0.00009,-0.00010,49.3,49.8,22,0,0,42.2,8.36,0.00,0.00
15min,AgWx,beryljct,423,04NOV2018:22:45:00,42.3,13,40.2,39.6,40.0,41.3,38.5,56,61,52,0.478,25.6,26.4,24.9,2.126,5.1,120,16,7.7,0.00010,0.00014,49.1,49.7,22,0,0,39.0,8.36,0.00,0.00
15min,AgWx,beryljct,423,04NOV2018:23:00:00,41.6,12.98,41.0,41.0,40.4,41.6,39.0,54,59,50,0.450,25.1,26.1,24.4,2.631,3.2,213,19,5.1,0.00001,0.00004,48.9,49.7,22,0,0,38.4,8.36,0.00,0.00
15min,AgWx,beryljct,423,04NOV2018:23:15:00,41.4,12.97,42.8,41.0,42.4,43.9,41.0,49,53,46,0.463,24.7,25.4,24.3,3.486,2.6,255,32,4.0,-0.00002,0.00000,48.8,49.7,22,0,0,40.0,8.36,0.00,0.00
15min,AgWx,beryljct,423,04NOV2018:23:30:00,41.5,12.96,43.3,41.3,42.9,46.1,39.9,49,57,42,0.467,25.1,26.0,24.4,1.008,2.6,270,30,4.9,-0.00001,0.00002,48.6,49.7,22,0,0,41.0,8.36,0.00,0.00
15min,AgWx,bigpiney,439,04NOV2018:00:00:00,25.2,12.84,24.8,24.0,24.5,25.6,22.6,78,82,77,0.347,18.7,19.6,16.8,0.307,2.4,229,19,4.5,0.00005,0.00007,39.3,41.1,36,0,0,0.0,.,0.00,0.00
15min,AgWx,bigpiney,439,04NOV2018:00:15:00,25.1,12.83,26.6,26.2,26.0,26.8,24.2,75,79,72,0.355,19.0,19.6,18.5,0.767,1.6,306,21,2.6,0.00005,0.00007,39.2,41.1,36,0,0,0.0,.,0.00,0.00
15min,AgWx,bigpiney,439,04NOV2018:00:30:00,24.9,12.8,25.3,24.6,25.0,26.2,24.2,76,78,73,0.352,18.5,19.3,17.3,0,0.4,223,41,1.6,0.00001,0.00002,39.2,41.1,36,0,0,0.0,.,0.00,0.00
15min,AgWx,bigpiney,439,04NOV2018:00:45:00,24.6,12.83,26.1,26.3,25.5,26.3,24.7,76,78,74,0.363,19.0,19.5,18.3,0,0.9,241,19,2.6,0.00003,0.00004,39.1,41.2,36,0,0,0.0,.,0.00,0.00
15min,AgWx,bigpiney,439,04NOV2018:01:00:00,24.4,12.82,25.6,25.2,25.3,26.4,24.9,76,77,74,0.349,18.7,19.4,18.2,1.469,1.8,270,12,2.9,0.00005,0.00007,39.1,41.1,36,0,0,0.0,.,0.00,0.00
15min,AgWx,bigpiney,439,04NOV2018:01:15:00,24.2,12.82,24.1,24.2,23.9,25.5,22.1,78,82,75,0.350,17.9,18.9,16.7,3.617,3.1,299,17,4.3,0.00006,0.00008,39.1,41.1,36,0,0,0.0,.,0.00,0.00
15min,AgWx,bigpiney,439,04NOV2018:01:30:00,24.2,12.82,24.4,21.9,24.2,25.9,21.5,77,81,74,0.328,18.0,19.1,15.5,6.949,3.3,281,44,6.9,0.00006,0.00009,39.0,41.1,36,0,0,0.0,.,0.00,0.00
15min,AgWx,bigpiney,439,04NOV2018:01:45:00,24.2,12.81,22.6,21.2,22.4,23.0,21.2,81,82,80,0.321,17.4,17.9,16.5,4.384,4.7,230,4.9,6.9,0.00006,0.00007,39.0,41.1,36,0,0,0.0,.,0.00,0.00
15min,AgWx,bigpiney,439,04NOV2018:02:00:00,24.0,12.81,21.5,21.5,21.1,21.6,20.5,83,84,82,0.328,16.7,17.3,15.8,5.48,4.5,211,13,6.7,0.00005,0.00006,38.9,41.1,36,0,0,0.0,.,0.00,0.00
15min,AgWx,bigpiney,439,04NOV2018:02:15:00,23.9,12.81,24.2,24.1,23.5,24.8,21.5,79,83,76,0.342,18.0,19.0,17.0,2.389,3.4,197,18,5.6,0.00006,0.00008,38.9,41.1,36,0,0,0.0,.,0.00,0.00
15min,AgWx,bigpiney,439,04NOV2018:02:30:00,24.0,12.79,24.2,24.1,23.9,24.2,23.5,78,79,78,0.347,18.1,18.5,17.7,3.486,3.0,270,10,4.6,0.00006,0.00007,38.9,41.1,36,0,0,0.0,.,0.00,0.00
15min,AgWx,bigpiney,439,04NOV2018:02:45:00,24.1,12.79,22.9,22.6,22.7,24.1,20.6,80,83,78,0.333,17.4,18.4,15.1,2.718,2.7,137,72,3.9,0.00005,0.00006,38.8,41.1,36,0,0,0.0,.,0.00,0.00
15min,AgWx,bigpiney,439,04NOV2018:03:00:00,23.9,12.8,20.8,19.8,20.8,22.6,19.2,83,86,80,0.311,16.4,17.5,14.9,1.162,2.2,126,18,3.6,0.00003,0.00005,38.8,41.1,36,0,0,0.0,.,0.00,0.00
15min,AgWx,bigpiney,439,04NOV2018:03:15:00,23.3,12.79,19.1,19.9,18.8,19.9,17.6,86,89,84,0.326,15.4,17.0,13.7,3.354,2.9,271,22,4.6,0.00003,0.00004,38.7,41.1,36,0,0,0.0,.,0.00,0.00
15min,AgWx,bigpiney,439,04NOV2018:03:30:00,22.8,12.78,20.3,20.8,19.8,20.8,18.6,86,88,84,0.328,16.3,17.3,14.5,3.902,3.5,261,16,4.8,0.00003,0.00004,38.7,41.1,36,0,0,0.0,.,0.00,0.00
15min,AgWx,bigpiney,439,04NOV2018:03:45:00,22.5,12.79,20.3,19.5,20.0,20.9,18.8,85,87,84,0.315,16.3,17.5,14.9,0,2.8,312,59,4.7,0.00003,0.00004,38.6,41.1,36,0,0,0.0,.,0.00,0.00
15min,AgWx,bigpiney,439,04NOV2018:04:00:00,22.5,12.78,20.3,19.2,19.9,20.7,19.0,86,87,85,0.309,16.4,17.3,15.3,5.48,1.9,173,20,5.5,0.00002,0.00003,38.6,41.0,36,0,0,0.0,.,0.00,0.00
15min,AgWx,bigpiney,439,04NOV2018:04:15:00,22.3,12.78,20.1,19.9,19.6,21.7,18.3,86,88,82,0.309,15.9,18.0,14.6,1.929,2.1,198,8.4,5.5,0.00003,0.00004,38.6,41.0,36,0,0,0.0,.,0.00,0.00
15min,AgWx,bigpiney,439,04NOV2018:04:30:00,22.1,12.78,20.6,20.9,20.0,20.9,19.3,85,87,84,0.332,16.3,17.4,15.4,1.578,2.8,220,15,4.7,0.00003,0.00004,38.5,41.1,36,0,0,0.0,.,0.00,0.00
15min,AgWx,bigpiney,439,04NOV2018:04:45:00,21.9,12.77,21.6,20.4,21.2,21.7,20.3,84,87,83,0.321,17.1,18.1,16.3,2.258,1.5,224,21,2.5,0.00002,0.00003,38.5,41.0,36,0,0,0.0,.,0.00,0.00
15min,AgWx,bigpiney,439,04NOV2018:05:00:00,22.0,12.77,21.2,20.9,20.7,21.4,20.3,86,87,85,0.330,17.2,17.8,16.6,2.543,2.5,322,29,3.6,0.00003,0.00004,38.5,41.0,36,0,0,0.0,.,0.00,0.00
15min,AgWx,bigpiney,439,04NOV2018:05:15:00,22.3,12.77,21.2,20.6,20.8,21.1,20.4,87,88,85,0.334,17.4,17.7,17.2,1.82,1.4,353,43,2.7,0.00002,0.00003,38.5,41.0,36,0,0,0.0,.,0.00,0.00
15min,AgWx,bigpiney,439,04NOV2018:05:30:00,22.5,12.77,22.3,22.8,21.7,22.8,20.6,86,88,83,0.348,18.2,18.6,17.6,1.359,1.1,315,22,2.1,0.00002,0.00003,38.4,41.0,36,0,0,0.0,.,0.00,0.00
15min,AgWx,bigpiney,439,04NOV2018:05:45:00,22.9,12.76,22.8,22.9,22.4,22.9,22.2,86,87,83,0.359,18.8,19.2,18.4,2.762,2.5,263,14,3.6,0.00003,0.00004,38.4,41.0,36,0,0,0.0,.,0.00,0.00
15min,AgWx,bigpiney,439,04NOV2018:06:00:00,23.4,12.76,23.1,22.3,22.8,23.5,22.2,86,88,85,0.357,19.2,19.5,18.9,1.995,2.0,243,26,3.2,0.00003,0.00004,38.4,41.0,36,0,0,0.0,.,0.00,0.00
15min,AgWx,bigpiney,439,04NOV2018:06:15:00,23.7,12.76,23.1,23.1,22.6,23.2,22.3,86,87,84,0.354,19.0,19.3,18.8,3.573,3.0,235,7.3,4.0,0.00003,0.00005,38.3,41.0,36,0,0,0.0,.,0.00,0.00
15min,AgWx,bigpiney,439,04NOV2018:06:30:00,23.9,12.76,23.7,23.5,23.2,23.7,22.8,83,84,82,0.352,18.8,19.0,18.5,0,2.0,236,6.8,4.5,0.00003,0.00005,38.3,41.0,36,0,0,0.0,.,0.00,0.00
15min,AgWx,bigpiney,439,04NOV2018:06:45:00,24.0,12.76,23.2,22.2,22.9,23.5,22.2,83,86,82,0.349,18.7,18.9,18.3,4.187,3.1,231,17,5.4,0.00004,0.00006,38.3,41.0,36,0,0,0.0,.,0.00,0.00
15min,AgWx,bigpiney,439,04NOV2018:07:00:00,24.0,12.75,23.1,22.9,22.6,22.9,22.2,85,86,85,0.355,18.8,19.0,18.6,1.315,2.1,242,16,4.9,0.00003,0.00004,38.3,41.0,36,1,0,0.0,.,0.00,0.00
15min,AgWx,bigpiney,439,04NOV2018:07:15:00,23.9,12.79,23.7,23.5,23.1,23.6,22.6,84,85,83,0.357,19.0,19.2,18.7,0.482,0.9,219,19,1.8,-0.00007,-0.00006,38.2,40.9,36,6,0,0.0,.,0.00,0.00
15min,AgWx,bigpiney,439,04NOV2018:07:30:00,23.8,12.93,23.1,21.4,22.9,23.9,21.4,84,85,82,0.335,18.7,19.3,17.4,1.096,0.8,277,39,2.5,-0.00012,-0.00011,38.2,40.9,36,18,0,0.0,.,0.00,0.00
15min,AgWx,bigpiney,439,04NOV2018:07:45:00,23.6,15.07,21.9,21.5,21.5,21.8,21.0,87,88,86,0.344,18.2,18.7,17.5,0.702,1.4,42,46,3.9,-0.00010,-0.00009,38.2,41.0,36,54,0,0.0,.,0.00,0.00
15min,AgWx,bigpiney,439,04NOV2018:08:00:00,23.8,14.98,22.9,23.9,22.3,23.9,21.4,89,89,87,0.385,19.4,20.8,18.2,0,1.0,19,13,2.6,0.00013,0.00015,38.2,40.9,36,131,0,0.0,.,0.00,0.00
15min,AgWx,bigpiney,439,04NOV2018:08:15:00,25.4,14.88,25.7,26.2,25.2,26.5,23.8,86,89,84,0.403,21.7,23.2,20.8,0.658,0.9,149,76,3.4,0.00056,0.00060,38.2,40.9,36,239,0,0.0,.,0.00,0.00
15min,AgWx,bigpiney,439,04NOV2018:08:30:00,27.8,14.84,27.5,27.3,27.1,27.7,26.2,83,85,81,0.411,22.5,23.4,21.8,0.855,1.0,107,45,2.5,0.00046,0.00051,38.1,40.9,36,209,0,0.0,.,0.00,0.00